When you browse on this site, cookies collect data to enhance your experience and personalize the content and advertising you see.
Visit our Privacy Policy to learn more. By continuing to use the site, you agree to this use of cookies and data.
  • In Hungary
  • List of Countries
  • For 7 days
  • Water Temperature
  • Weather Map
  • News
  • Weather Widgets
  • user-avatar
    Login

    Hourly Weather Fokino

    Today, 13 November, Wednesday

    Time Temperature Precipitation Wind Pressure Humidity
    00:00 +3°C° 0 mm 2 mps 760 mmHg 50%
    01:00 +3°C° 0 mm 3 mps 759 mmHg 53%
    02:00 +3°C° 0 mm 3 mps 759 mmHg 56%
    03:00 +3°C° 0 mm 4 mps 758 mmHg 58%
    04:00 +3°C° 0.1 mm 4 mps 757 mmHg 63%
    05:00 +4°C° 0.1 mm 4 mps 757 mmHg 69%
    06:00 +3°C° 0.1 mm 5 mps 756 mmHg 74%
    07:00 +3°C° 0 mm 5 mps 755 mmHg 77%
    08:00 +5°C° 0 mm 5 mps 755 mmHg 80%
    09:00 +5°C° 0 mm 5 mps 754 mmHg 82%
    10:00 +6°C° 0.1 mm 5 mps 753 mmHg 84%
    11:00 +7°C° 0.1 mm 5 mps 752 mmHg 85%
    12:00 +8°C° 0.1 mm 5 mps 751 mmHg 86%
    13:00 +8°C° 0.3 mm 5 mps 749 mmHg 87%
    14:00 +8°C° 0.3 mm 5 mps 748 mmHg 88%
    15:00 +9°C° 0.3 mm 5 mps 746 mmHg 89%
    16:00 +8°C° 0.8 mm 5 mps 746 mmHg 91%
    17:00 +7°C° 0.8 mm 6 mps 745 mmHg 93%
    18:00 +7°C° 0.8 mm 6 mps 745 mmHg 95%
    19:00 +4°C° 1.3 mm 8 mps 745 mmHg 94%
    20:00 0°C° 1.3 mm 9 mps 746 mmHg 93%
    21:00 -4°C° 0 mm 10 mps 749 mmHg 87%
    22:00 -5°C° 0.1 mm 10 mps 750 mmHg 83%
    23:00 -7°C° 0.1 mm 11 mps 750 mmHg 80%

    Tomorrow, 14 November, Thursday

    Time Temperature Precipitation Wind Pressure Humidity
    00:00 -8°C° 0.1 mm 11 mps 751 mmHg 77%
    01:00 -9°C° 0 mm 11 mps 751 mmHg 71%
    02:00 -9°C° 0 mm 11 mps 752 mmHg 66%
    03:00 -11°C° 0 mm 11 mps 752 mmHg 60%
    04:00 -12°C° 0 mm 11 mps 752 mmHg 56%
    05:00 -12°C° 0 mm 11 mps 753 mmHg 52%
    06:00 -12°C° 0 mm 11 mps 753 mmHg 48%
    07:00 -12°C° 0 mm 10 mps 754 mmHg 46%
    08:00 -12°C° 0 mm 10 mps 755 mmHg 44%
    09:00 -11°C° 0 mm 9 mps 756 mmHg 42%
    10:00 -10°C° 0 mm 9 mps 756 mmHg 43%
    11:00 -10°C° 0 mm 9 mps 756 mmHg 43%
    12:00 -10°C° 0 mm 8 mps 756 mmHg 44%
    13:00 -10°C° 0 mm 8 mps 756 mmHg 42%
    14:00 -10°C° 0 mm 8 mps 756 mmHg 40%
    15:00 -10°C° 0 mm 8 mps 756 mmHg 39%
    16:00 -10°C° 0 mm 8 mps 757 mmHg 39%
    17:00 -9°C° 0 mm 7 mps 757 mmHg 40%
    18:00 -11°C° 0 mm 7 mps 758 mmHg 40%
    19:00 -9°C° 0 mm 6 mps 758 mmHg 41%
    20:00 -9°C° 0 mm 6 mps 758 mmHg 43%
    21:00 -8°C° 0 mm 5 mps 758 mmHg 44%
    22:00 -8°C° 0 mm 5 mps 757 mmHg 45%
    23:00 -7°C° 0 mm 5 mps 757 mmHg 45%

    Day after tomorrow, 15 November, Friday

    Time Temperature Precipitation Wind Pressure Humidity
    00:00 -7°C° 0 mm 4 mps 756 mmHg 46%
    01:00 -7°C° 0.1 mm 4 mps 755 mmHg 51%
    02:00 -6°C° 0.1 mm 3 mps 754 mmHg 56%
    03:00 -6°C° 0.1 mm 3 mps 753 mmHg 61%
    04:00 -6°C° 0.3 mm 3 mps 753 mmHg 71%
    05:00 -6°C° 0.3 mm 3 mps 753 mmHg 80%
    06:00 -6°C° 0.3 mm 3 mps 752 mmHg 90%
    07:00 -7°C° 0 mm 4 mps 753 mmHg 84%
    08:00 -8°C° 0 mm 6 mps 753 mmHg 78%
    09:00 -7°C° 0 mm 8 mps 753 mmHg 72%
    10:00 -7°C° 0 mm 7 mps 754 mmHg 62%
    11:00 -7°C° 0 mm 7 mps 754 mmHg 52%
    12:00 -6°C° 0 mm 7 mps 754 mmHg 41%
    13:00 -6°C° 0 mm 7 mps 754 mmHg 39%
    14:00 -6°C° 0 mm 7 mps 754 mmHg 37%
    15:00 -6°C° 0 mm 8 mps 754 mmHg 35%
    16:00 -6°C° 0 mm 8 mps 755 mmHg 38%
    17:00 -7°C° 0 mm 8 mps 755 mmHg 40%
    18:00 -8°C° 0 mm 8 mps 756 mmHg 43%
    19:00 -8°C° 0 mm 8 mps 756 mmHg 43%
    20:00 -8°C° 0 mm 8 mps 757 mmHg 42%
    21:00 -8°C° 0 mm 8 mps 757 mmHg 42%
    22:00 -9°C° 0 mm 7 mps 757 mmHg 43%
    23:00 -9°C° 0 mm 7 mps 757 mmHg 44%

    16 November, Saturday

    Time Temperature Precipitation Wind Pressure Humidity
    00:00 -9°C° 0 mm 7 mps 757 mmHg 44%
    01:00 -9°C° 0 mm 7 mps 757 mmHg 44%
    02:00 -9°C° 0 mm 7 mps 757 mmHg 44%
    03:00 -10°C° 0 mm 8 mps 757 mmHg 44%
    04:00 -10°C° 0 mm 8 mps 757 mmHg 44%
    05:00 -10°C° 0 mm 8 mps 757 mmHg 44%
    06:00 -10°C° 0 mm 8 mps 757 mmHg 44%
    07:00 -8°C° 0 mm 8 mps 758 mmHg 40%
    08:00 -8°C° 0 mm 8 mps 758 mmHg 36%
    09:00 -7°C° 0 mm 8 mps 758 mmHg 33%
    10:00 -6°C° 0 mm 8 mps 758 mmHg 31%
    11:00 -6°C° 0 mm 7 mps 758 mmHg 29%
    12:00 -4°C° 0 mm 7 mps 758 mmHg 27%
    13:00 -4°C° 0 mm 7 mps 758 mmHg 28%
    14:00 -3°C° 0 mm 7 mps 758 mmHg 29%
    15:00 -3°C° 0 mm 7 mps 758 mmHg 29%
    16:00 -4°C° 0 mm 7 mps 758 mmHg 33%
    17:00 -6°C° 0 mm 7 mps 759 mmHg 36%
    18:00 -6°C° 0 mm 7 mps 760 mmHg 40%
    19:00 -7°C° 0 mm 7 mps 760 mmHg 41%
    20:00 -6°C° 0 mm 6 mps 760 mmHg 43%
    21:00 -8°C° 0 mm 6 mps 761 mmHg 45%
    22:00 -8°C° 0 mm 6 mps 761 mmHg 45%
    23:00 -9°C° 0 mm 6 mps 762 mmHg 46%

    17 November, Sunday

    Time Temperature Precipitation Wind Pressure Humidity
    00:00 -9°C° 0 mm 6 mps 762 mmHg 47%
    01:00 -9°C° 0 mm 6 mps 763 mmHg 46%
    02:00 -9°C° 0 mm 6 mps 763 mmHg 45%
    03:00 -11°C° 0 mm 7 mps 763 mmHg 45%
    04:00 -10°C° 0 mm 6 mps 764 mmHg 45%
    05:00 -10°C° 0 mm 6 mps 764 mmHg 46%
    06:00 -10°C° 0 mm 6 mps 764 mmHg 46%
    07:00 -10°C° 0 mm 5 mps 764 mmHg 44%
    08:00 -8°C° 0 mm 5 mps 765 mmHg 42%
    09:00 -7°C° 0 mm 5 mps 765 mmHg 40%
    10:00 -5°C° 0 mm 4 mps 765 mmHg 38%
    11:00 -3°C° 0 mm 4 mps 764 mmHg 36%
    12:00 0°C° 0 mm 3 mps 764 mmHg 33%
    13:00 0°C° 0 mm 3 mps 763 mmHg 36%
    14:00 +2°C° 0 mm 2 mps 763 mmHg 38%
    15:00 +3°C° 0 mm 1 mps 762 mmHg 40%
    16:00 +2°C° 0 mm 1 mps 762 mmHg 43%
    17:00 +1°C° 0 mm 1 mps 761 mmHg 47%
    18:00 -1°C° 0 mm 2 mps 761 mmHg 51%
    19:00 -1°C° 0 mm 2 mps 760 mmHg 50%
    20:00 -1°C° 0 mm 3 mps 759 mmHg 50%
    21:00 -2°C° 0 mm 4 mps 758 mmHg 50%
    22:00 -3°C° 0.7 mm 6 mps 756 mmHg 62%
    23:00 -4°C° 0.7 mm 8 mps 754 mmHg 75%

    18 November, Monday

    Time Temperature Precipitation Wind Pressure Humidity
    00:00 -4°C° 0.7 mm 10 mps 752 mmHg 87%
    01:00 -3°C° 2.7 mm 11 mps 750 mmHg 89%
    02:00 -3°C° 2.7 mm 12 mps 747 mmHg 90%
    03:00 -2°C° 2.7 mm 13 mps 745 mmHg 91%
    04:00 0°C° 6.6 mm 12 mps 742 mmHg 93%
    05:00 +3°C° 6.6 mm 11 mps 739 mmHg 94%
    06:00 +6°C° 6.6 mm 10 mps 736 mmHg 96%
    07:00 +5°C° 0.4 mm 9 mps 736 mmHg 93%
    08:00 +3°C° 0.4 mm 9 mps 736 mmHg 90%
    09:00 +2°C° 0.4 mm 8 mps 736 mmHg 87%
    10:00 +1°C° 0.2 mm 9 mps 738 mmHg 82%
    11:00 0°C° 0.2 mm 9 mps 739 mmHg 77%
    12:00 -2°C° 0.2 mm 10 mps 741 mmHg 71%
    13:00 -3°C° 0 mm 10 mps 742 mmHg 68%
    14:00 -4°C° 0 mm 11 mps 743 mmHg 65%
    15:00 -6°C° 0 mm 12 mps 745 mmHg 62%
    16:00 -7°C° 0 mm 12 mps 746 mmHg 62%
    17:00 -10°C° 0 mm 12 mps 747 mmHg 61%
    18:00 -11°C° 0 mm 12 mps 748 mmHg 61%
    19:00 -11°C° 0 mm 11 mps 749 mmHg 60%
    20:00 -12°C° 0 mm 11 mps 749 mmHg 59%
    21:00 -12°C° 0 mm 10 mps 750 mmHg 58%
    22:00 -12°C° 0 mm 10 mps 751 mmHg 57%
    23:00 -12°C° 0 mm 10 mps 751 mmHg 57%
    Show more